Location: Fa?a Ro?ie
(45.7833°N, 22.5833°E)
Time: 22:02:37
(UTC+00:00)

Daily predictions for brighter satellites

Satellite Brightness Start Highest point End
(mag) Time Altitude Azimuth Time Altitude Azimuth Time Altitude Azimuth
BREEZE-M DEB (TANK) 3.3 17:39:09 10° SW 17:42:38 81° SE 17:53:39 10° ENE
USA 186 1.7 17:52:13 10° SSE 17:55:24 63° ENE 17:58:29 10° N
Ariane Rocket 3.6 17:51:41 10° SE 17:56:23 40° ENE 18:01:04 10° N
Cosmos 1302 Rocket 4.4 17:52:15 10° NNW 17:57:32 68° WSW 18:02:45 10° S
Cosmos 1689 Rocket 3.0 17:54:47 10° N 17:57:34 50° WNW 18:00:18 10° SSW
Cosmos 1825 Rocket 3.8 17:54:56 10° NNW 17:59:19 75° W 18:03:43 10° S
SJ-6B 2.9 17:56:40 10° SSE 18:00:17 53° ENE 18:03:58 10° N
Cosmos 1269 Rocket 4.4 17:55:45 10° SSW 18:01:02 71° WNW 18:06:22 10° NNE
Resurs 01 Rocket 3.0 17:58:56 10° ESE 18:02:23 22° ENE 18:05:51 10° NNE
Cosmos 2322 Rocket 4.1 17:58:44 10° NW 18:03:37 30° WSW 18:08:29 10° SSW
Cosmos 1892 2.6 18:01:28 10° N 18:05:16 84° E 18:09:03 10° S
CENTAUR R/B 4.5 17:57:51 10° NW 18:05:25 40° WSW 18:13:29 10° S
Cosmos 2297 Rocket 3.7 18:04:31 10° SE 18:07:45 16° E 18:11:00 10° ENE
IRS-1A Rocket 4.5 18:02:28 10° SE 18:07:54 55° ENE 18:13:26 10° N
BREEZE-M DEB (TANK) 2.9 18:06:03 10° WNW 18:08:42 36° N 18:10:51 10° ENE
Cosmos 2333 Rocket 2.3 18:04:57 10° NNW 18:10:46 87° ENE 18:16:30 10° SSE
Resurs 1-3 4.1 18:07:15 10° SE 18:11:22 42° ENE 18:15:31 10° N
Cosmos 2034 Rocket 4.3 18:06:03 10° SSW 18:12:15 76° W 18:18:35 10° N
Nadezhda 4 Rocket 4.4 18:06:10 10° NNW 18:12:27 71° W 18:18:39 10° S
Cosmos 44 3.6 18:08:21 10° SSW 18:13:16 52° ESE 18:18:28 10° NE
ATLAS 3B R/B 2.9 18:06:39 10° NW 18:13:38 66° NE 18:20:30 12° SE
Cosmos 1825 2.4 18:11:43 10° N 18:15:24 48° ENE 18:19:04 10° SSE
Cosmos 1408 2.4 18:12:50 10° N 18:16:25 87° E 18:19:58 10° S
CZ-4 R/B 4.3 18:14:13 10° SW 18:17:05 18° W 18:19:58 10° NW
Cosmos 1992 Rocket 4.0 18:13:25 10° NNW 18:18:39 80° ENE 18:23:52 10° SSE
MetOp-A 4.4 18:13:50 10° S 18:19:11 73° WSW 18:24:34 10° NNW
USA 215 3.9 18:14:04 10° E 18:20:16 47° NNE 18:26:28 10° NW
Cosmos 2279 Rocket 4.5 18:15:05 10° SSE 18:20:43 38° E 18:26:22 10° NNE
Cosmos 2322 3.9 18:15:05 10° NNW 18:20:45 77° WSW 18:26:23 10° SSE
COSMOS 2487 2.9 18:18:09 10° SSW 18:21:32 63° WNW 18:24:55 10° NNE
Cosmos 2344 3.5 18:16:51 10° SSW 18:24:17 64° ESE 18:31:57 10° NE
Cosmos 2026 Rocket 3.9 18:22:35 10° N 18:28:41 76° E 18:34:47 10° SSE
FALCON 9 DEB 3.0 18:26:51 10° SW 18:30:16 75° SSE 18:33:42 10° ENE
SL-4 R/B 4.0 18:32:34 10° SSE 18:33:33 13° SSE 18:33:33 13° SSE
Cosmos 909 Rocket 4.0 18:29:56 10° SSW 18:36:13 63° ESE 18:42:32 10° NE
BREEZE-M DEB (TANK) 4.0 18:33:46 10° WSW 18:36:53 75° NNW 18:45:12 10° ENE
SL-8 R/B 3.7 18:32:19 10° WNW 18:37:09 74° SSW 18:40:27 20° ESE
Cosmos 407 Rocket 4.3 18:34:02 12° SSE 18:37:58 28° E 18:42:18 10° NE
Meteor 2-1 Rocket 4.3 18:32:28 10° S 18:38:15 71° E 18:44:10 10° NNE
SL-16 R/B 3.9 18:34:47 10° N 18:38:50 20° NE 18:42:20 12° E
Cosmos 1980 4.2 18:34:45 10° NNW 18:40:14 46° ENE 18:43:55 20° ESE
Cosmos 1818 3.5 18:35:18 10° SSW 18:40:42 74° ESE 18:46:11 10° NE
RESURS DK-1 2.5 18:38:56 10° SSW 18:43:03 80° WNW 18:47:13 10° NNE
Cosmos 2360 Rocket 4.3 18:39:18 10° NW 18:43:48 25° WSW 18:48:16 10° SSW
CZ-2C R/B 4.4 18:40:20 10° NE 18:44:17 30° E 18:46:13 22° SE
Cosmos 1634 Rocket 4.0 18:40:22 10° S 18:46:39 87° W 18:52:56 10° N
SPOT 5 4.5 18:49:20 15° E 18:50:52 18° ENE 18:54:00 10° NNE
COSMOS 2428 3.1 18:45:45 10° NNW 18:51:27 65° WSW 18:56:32 13° S
Cosmos 2142 Rocket 4.5 18:45:13 10° S 18:51:29 73° E 18:57:52 10° NNE
Cosmos 1356 3.3 18:49:29 10° N 18:52:55 72° E 18:54:32 28° SSE
Meteor 2-3 Rocket 4.4 18:50:22 10° N 18:55:43 38° ENE 18:58:25 24° ESE
Terra 3.7 18:54:23 14° E 18:55:47 15° ENE 18:58:29 10° NNE
ARIANE 5 R/B 3.8 18:54:52 23° E 18:56:18 28° ENE 19:00:01 10° N
Cosmos 2058 3.4 18:52:16 10° NNW 18:56:25 60° W 19:00:24 11° S
Cosmos 1140 Rocket 3.9 18:56:50 20° SSE 18:59:45 37° ESE 19:04:27 10° NE
Cosmos 2219 Rocket 3.1 18:55:01 10° NW 19:00:25 46° WSW 19:05:47 10° S
Cosmos 1633 3.1 18:57:11 10° N 19:00:37 40° ENE 19:01:19 36° ESE
Cosmos-2242 3.8 19:00:51 29° ESE 19:01:38 32° E 19:05:29 10° NNE
Cosmos 1455 3.8 18:59:00 10° SW 19:02:28 36° WNW 19:05:57 10° N
OBJECT-B 3.2 19:02:45 10° SSW 19:05:17 21° W 19:07:51 10° NW
Spot 2 Rocket 4.1 19:04:05 27° ESE 19:06:08 40° ENE 19:10:51 10° N
IRIDIUM 106 4.2 19:02:00 14° S 19:06:29 75° E 19:11:43 10° N
USA 245 3.8 19:06:59 35° ESE 19:07:41 39° ENE 19:10:50 10° N
Abrixas rocket 3.9 19:07:08 10° WSW 19:07:21 12° WSW 19:07:21 12° WSW
Cosmos 2180 Rocket 4.4 19:03:58 10° S 19:10:06 71° E 19:16:13 10° NNE
Cosmos 2151 3.0 19:11:57 10° N 19:16:14 62° E 19:17:31 41° SE
Cosmos 1655 Rocket 4.0 19:12:37 10° N 19:18:55 69° E 19:22:17 29° SSE
BREEZE M DEB (TANK) 4.1 19:17:47 10° SSW 19:21:19 42° SE 19:31:13 10° ENE
Cosmos 405 Rocket 3.6 19:18:28 10° NNW 19:22:20 47° W 19:24:34 22° SSW
Cosmos 1076 Rocket 3.9 19:18:40 10° NNW 19:22:58 60° W 19:25:22 24° SSW
ATLAS 2AS CENTAUR R/B 4.2 19:18:31 10° WSW 19:26:01 44° NW 19:33:22 10° NNE
Landsat 7 3.9 19:24:50 30° S 19:27:11 76° WSW 19:31:58 10° NNW
Lacrosse 5 rocket 3.9 19:24:53 10° NW 19:27:51 18° N 19:30:55 10° NE
Cosmos 389 Rocket 3.4 19:26:00 16° SSW 19:28:38 48° WNW 19:32:06 10° N
Cosmos 2237 Rocket 2.1 19:23:17 10° NNW 19:28:57 85° WSW 19:31:22 36° SSE
SPOT 1/Viking Rocket 3.5 19:26:55 36° SSE 19:29:07 80° ENE 19:34:22 10° NNW
Cosmos 1812 Rocket 3.8 19:27:04 18° SSW 19:30:16 71° W 19:34:45 10° N
NOSS 0 Rocket 4.4 19:25:46 10° NW 19:31:50 57° WSW 19:35:25 25° S
Cosmos 1190 Rocket 3.9 19:29:47 30° S 19:32:20 63° ESE 19:37:30 10° NNE
MetOp-B 4.2 19:31:05 29° S 19:33:52 75° WSW 19:39:15 10° NNW
Cosmos 1869 4.4 19:35:34 31° ENE 19:35:34 31° ENE 19:38:16 10° NNE
SPOT 3 Rocket 4.1 19:32:48 22° S 19:36:03 54° W 19:41:09 10° NNW
Meteor 2-21 4.4 19:30:01 10° N 19:36:05 80° W 19:39:27 28° S
IGS 5A 4.2 19:34:22 29° SSW 19:36:09 50° W 19:40:13 10° NNW
COSMOS 2455 3.4 19:37:45 35° E 19:37:45 35° E 19:42:42 10° NE
Resurs 01 Rocket 2.7 19:36:06 21° SSW 19:38:38 41° W 19:42:53 10° NNW
BREEZE-M DEB (TANK) 2.9 19:37:31 10° WSW 19:39:40 33° W 19:39:40 33° W
Cosmos 2082 4.3 19:42:30 35° E 19:42:30 35° E 19:46:58 10° NE
Okean 3 Rocket 3.9 19:38:14 10° N 19:42:40 50° ENE 19:42:51 50° E
Cosmos 2227 Rocket 2.1 19:40:19 24° S 19:43:47 71° ESE 19:49:26 10° NNE
Cosmos 1766 Rocket 3.8 19:39:35 10° N 19:43:48 50° ENE 19:43:48 50° ENE
CARTOSAT-1 3.4 19:43:49 64° ESE 19:44:13 70° ENE 19:48:32 10° N
Cosmos 676 Rocket 4.0 19:49:54 54° ESE 19:50:01 54° ESE 19:55:04 10° NNE
Cosmos 2297 Rocket 2.2 19:45:23 10° SSW 19:51:02 82° WNW 19:56:44 10° NNE
Timation 1 Rocket 4.5 19:52:58 48° ESE 19:53:12 48° ESE 19:58:55 10° NE
Cosmos 2219 3.2 19:49:44 10° SSW 19:55:18 83° WNW 20:00:58 10° NNE
USA 215 3.2 20:00:59 47° SSE 20:03:03 76° SW 20:09:38 10° NW
ATLAS 3B R/B 4.1 19:57:54 10° NW 20:03:58 31° WSW 20:07:46 20° SSW
Genesis I 3.7 20:04:58 10° NW 20:08:23 59° WNW 20:08:23 59° WNW
ERS-1 Rocket 2.9 20:14:28 71° SSW 20:14:56 79° WSW 20:20:00 10° NNW
Meteor 2-8 Rocket 4.4 20:14:32 49° S 20:16:21 87° WNW 20:22:31 10° N
SL-16 R/B 2.0 20:18:01 10° NNW 20:23:45 87° WSW 20:24:13 76° SSE
H-2A R/B 4.2 20:21:00 10° NNE 20:24:06 48° NNE 20:24:06 48° NNE
SPOT 5 3.1 20:28:33 59° W 20:28:33 59° W 20:33:08 10° NNW
ARIANE 5 R/B 3.9 20:32:24 32° WSW 20:32:38 32° W 20:36:36 10° NNW
Terra 1.9 20:33:16 72° WNW 20:33:16 72° WNW 20:37:43 10° NNW
Cosmos 1954 Rocket 4.3 20:34:30 52° WSW 20:35:26 62° WNW 20:40:35 10° NNE
Cosmos 1745 Rocket 4.4 20:31:00 10° N 20:37:05 47° ENE 20:37:15 47° E
SeaSat 1 4.0 20:39:08 10° NE 20:41:25 25° NE 20:41:25 25° NE
Cosmos 1408 Rocket 4.4 20:42:13 10° NNW 20:45:27 48° NNW 20:45:27 48° NNW
Nadezhda 2 Rocket 4.4 20:40:43 10° NNW 20:46:58 74° W 20:47:38 67° SW
Aureole 1 Rocket 4.4 20:50:37 40° NE 20:50:37 40° NE 20:53:46 10° NNE
S3M 4.3 20:49:33 52° ENE 20:49:33 52° ENE 20:55:21 10° NNE
Cosmos 1943 3.9 20:47:05 10° NNW 20:52:25 43° NE 20:52:25 43° NE
Meteor 2-15 Rocket 4.4 20:54:35 73° WSW 20:55:01 78° W 21:01:08 10° N
SL-08 ROCKET BODY 4.3 20:49:56 10° N 20:56:00 88° NE 20:56:00 88° NE
USA 229 DEB 4.1 20:53:49 10° NW 21:01:02 62° NE 21:02:35 52° E
USA 229 4.1 20:53:55 10° NW 21:01:08 62° NE 21:02:42 52° E
Cosmos 2221 3.9 21:05:30 37° NNW 21:05:30 37° NNW 21:08:19 10° N
Lacrosse 5 rocket 3.3 21:04:25 10° NW 21:08:08 27° NNE 21:08:08 27° NNE
SL-08 R/B 4.5 21:04:45 10° NNW 21:10:55 73° W 21:10:57 73° W
Cosmos 2237 Rocket 4.5 21:09:43 10° WNW 21:12:05 13° W 21:13:12 12° WSW
Cosmos 1386 Rocket 4.4 21:07:31 10° N 21:13:11 77° NNE 21:13:11 77° NNE
Cosmos 841 Rocket 4.0 21:08:28 10° NNW 21:12:38 57° N 21:12:38 57° N
NOSS 3-1 (A) 4.1 21:11:32 10° NW 21:18:59 72° NE 21:20:33 59° ESE
Cosmos 1553 Rocket 4.0 21:19:14 67° W 21:19:18 67° W 21:25:23 10° N
COSMOS 2455 3.7 21:20:46 32° W 21:23:05 47° NW 21:28:55 10° NNE
Cosmos 2263 Rocket 2.9 21:25:51 46° NE 21:25:51 46° NE 21:29:45 10° NNE
Cosmos 2227 Rocket 4.3 21:23:58 10° W 21:28:24 23° NW 21:32:51 10° N
ALOS 2 4.3 21:33:19 30° NNE 21:33:19 30° NNE 21:35:44 10° N
Cosmos 1603 4.1 21:32:17 10° NNW 21:36:56 60° NNW 21:36:56 60° NNW
NOSS 3-1 (C) 4.1 21:37:02 10° NW 21:44:32 64° WSW 21:44:44 63° SW
Cosmos 2315 Rocket 4.2 21:53:18 69° NNE 21:53:18 69° NNE 21:58:53 10° N
SL-16 R/B 4.5 22:04:22 10° WNW 22:06:06 13° W 22:06:06 13° W
SeaSat 1 4.0 22:16:56 10° N 22:21:11 31° NW 22:21:11 31° NW
Cosmos 2074 Rocket 4.3 22:18:47 10° N 22:24:18 63° NE 22:24:18 63° NE
ATLAS 5 CENTAUR R/B 4.2 22:35:26 10° NNW 22:39:46 24° NE 22:44:41 10° E
USA 281 3.2 22:42:09 75° NE 22:42:09 75° NE 22:48:34 10° NNW
Cosmos 968 Rocket 4.5 22:43:56 45° N 22:43:56 45° N 22:47:39 10° NNE
Lacrosse 5 rocket 4.3 22:43:20 10° NW 22:43:44 12° NW 22:43:44 12° NW
Nadezhda 1 Rocket 4.3 22:51:21 64° ENE 22:51:21 64° ENE 22:57:02 10° NNE
SL-16 R/B 3.9 23:03:05 26° E 23:05:06 32° ENE 23:10:33 10° N
Cosmos 2263 Rocket 4.1 23:07:30 19° WNW 23:08:44 21° NW 23:12:54 10° N
Cosmos 1844 Rocket 3.2 23:22:25 52° NNW 23:22:25 52° NNW 23:27:04 10° NNE
Cosmos 2154 Rocket 4.3 23:22:35 10° NNW 23:28:04 57° WNW 23:28:04 57° WNW
SL-4 R/B 3.6 23:35:26 39° NE 23:35:26 39° NE 23:39:11 10° E
Helios 1B rocket 4.5 23:31:53 10° NNE 23:34:01 24° NE 23:34:01 24° NE
Cosmos 2082 Rocket 4.0 23:32:28 10° N 23:37:15 28° NE 23:42:00 10° ESE
Resurs 1-4 Rocket 2.8 23:40:14 10° NNE 23:44:51 45° E 23:44:51 45° E
Cosmos 1833 Rocket 3.2 23:40:26 10° NNW 23:46:00 54° ENE 23:46:45 50° E
Cosmos 2341 Rocket 3.9 23:44:25 10° N 23:50:36 79° WNW 23:50:36 79° WNW
